Weather History for Chanute, KS

Change the Weather History Date:

Thursday, January 19, 2012

  Actual Average Record
Temperature  
Mean Temperature 33 °F 32 °F  
Max Temperature 43 °F 42 °F 70 °F (1951)
Min Temperature 22 °F 23 °F -16 °F (1943)
Degree Days  
Heating Degree Days 32 33  
Month to date heating degree days 526 627  
Since 1 July heating degree days 2129 2420  
Cooling Degree Days 0 0  
Month to date cooling degree days 0 0  
Year to date cooling degree days 0 0  
Moisture  
Dew Point 19 °F    
Average Humidity 67    
Maximum Humidity 88    
Minimum Humidity 45    
Precipitation  
Precipitation 0.00 in 0.04 in 1.27 in (1990)
Month to date precipitation 0.01 0.74  
Year to date precipitation 0.01 0.74  
Sea Level Pressure  
Sea Level Pressure 29.97 in    
Wind  
Wind Speed 9 mph (NE)    
Max Wind Speed 17 mph    
Max Gust Speed 24 mph    
Visibility 10 miles    
Events      
T = Trace of Precipitation, MM = Missing Value Source: NWS Daily Summary

Daily Weather History Graph

Daily Weather History Graph

Search for Another Location

Airport:

Trip Planner

Search our weather history database for the weather conditions in past years. The results will help you decide how hot, cold, wet, or windy it might be!

Date:

Astronomy

Jan. 19, 2012 Rise Set
Actual Time 7:34 AM CST 5:30 PM CST
Civil Twilight 7:06 AM CST 5:59 PM CST
Nautical Twilight 6:34 AM CST 6:31 PM CST
Astronomical Twilight 6:02 AM CST 7:02 PM CST
Moon 4:10 AM CST (1/19) 2:05 PM CST (1/19)
Length of Visible Light 10h 53m
Length of Day
9h 56m
Waning Crescent, 15% of the Moon is Illuminated
Jan 19
Waning Crescent
Jan 23
New
Jan 30
First Quarter
Feb 7
Full
Feb 14
Last Quarter

Hourly Weather History & Observations

Time (CST) Temp. Windchill Dew Point Humidity Pressure Visibility Wind Dir Wind Speed Gust Speed Precip Events Conditions
12:52 AM 32.0 °F 23.0 °F 19.9 °F 61% 29.91 in 10.0 mi South 11.5 mph - N/A   Clear
1:52 AM 28.9 °F 21.1 °F 19.9 °F 69% 29.90 in 10.0 mi South 8.1 mph - N/A   Clear
2:52 AM 28.9 °F 21.1 °F 21.0 °F 72% 29.89 in 10.0 mi SSE 8.1 mph - N/A   Clear
3:52 AM 28.9 °F 21.1 °F 21.9 °F 75% 29.87 in 10.0 mi SSE 8.1 mph - N/A   Clear
4:52 AM 27.0 °F 18.7 °F 21.9 °F 81% 29.86 in 10.0 mi SSE 8.1 mph - N/A   Clear
5:52 AM 26.1 °F 18.4 °F 21.9 °F 84% 29.91 in 10.0 mi North 6.9 mph - N/A   Clear
6:52 AM 25.0 °F 20.7 °F 19.9 °F 81% 29.92 in 10.0 mi North 3.5 mph - N/A   Clear
7:52 AM 23.0 °F 18.4 °F 19.0 °F 85% 29.94 in 10.0 mi North 3.5 mph - N/A   Clear
8:52 AM 30.9 °F 26.2 °F 23.0 °F 72% 29.94 in 10.0 mi East 4.6 mph - N/A   Clear
9:52 AM 35.1 °F 27.9 °F 24.1 °F 64% 29.98 in 10.0 mi North 9.2 mph - N/A   Clear
10:52 AM 37.9 °F 30.9 °F 21.9 °F 53% 29.98 in 10.0 mi NNE 10.4 mph - N/A   Clear
11:52 AM 39.9 °F 32.9 °F 21.0 °F 47% 29.95 in 10.0 mi NNE 11.5 mph - N/A   Clear
12:52 PM 42.8 °F 36.6 °F 23.0 °F 46% 29.95 in 10.0 mi North 11.5 mph 18.4 mph N/A   Clear
1:52 PM 41.0 °F 32.5 °F 23.0 °F 49% 29.96 in 10.0 mi NNE 17.3 mph 21.9 mph N/A   Clear
2:52 PM 39.9 °F 31.8 °F 21.9 °F 49% 29.95 in 10.0 mi NNE 15.0 mph - N/A   Clear
3:52 PM 37.9 °F 30.5 °F 19.9 °F 48% 30.00 in 10.0 mi NE 11.5 mph - N/A   Clear
4:52 PM 36.0 °F 28.5 °F 18.0 °F 48% 30.02 in 10.0 mi NE 10.4 mph - N/A   Clear
5:52 PM 32.0 °F 23.6 °F 15.1 °F 50% 30.02 in 10.0 mi NE 10.4 mph - N/A   Clear
6:52 PM 28.9 °F 19.2 °F 14.0 °F 54% 30.00 in 10.0 mi ENE 11.5 mph - N/A   Clear
7:52 PM 26.1 °F 17.6 °F 12.9 °F 58% 30.06 in 10.0 mi NNE 8.1 mph - N/A   Clear
8:52 PM 25.0 °F 16.3 °F 12.9 °F 60% 30.05 in 10.0 mi NNE 8.1 mph - N/A   Clear
9:52 PM 24.1 °F 15.2 °F 12.0 °F 60% 30.05 in 10.0 mi NNE 8.1 mph - N/A   Clear
10:52 PM 23.0 °F 13.9 °F 10.9 °F 60% 30.04 in 10.0 mi NE 8.1 mph - N/A   Clear
11:52 PM 21.9 °F 12.5 °F 10.9 °F 63% 30.01 in 10.0 mi NE 8.1 mph - N/A   Clear